| time (UTC) | temp F | wind direction | speed MPH | gust MPH | rain 1hr in | rain 24hr in | rain mn in | humidity % | barometer mb |
| 20260506224748 | 42 | 22 | 1.0 | 6.0 | 0.00 | 0.86 | 0.79 | 97 | 1008.4 |
| 20260506221746 | 42 | 27 | 0.0 | 3.0 | 0.00 | 0.86 | 0.79 | 97 | 1008.3 |
| 20260506214747 | 42 | 49 | 1.0 | 4.0 | 0.02 | 0.87 | 0.79 | 97 | 1008.3 |
| 20260506211749 | 42 | 35 | 1.0 | 5.0 | 0.01 | 0.97 | 0.77 | 97 | 1008.2 |
| 20260506211744 | 42 | 18 | 1.0 | 6.0 | 0.02 | 0.87 | 0.79 | 97 | 1008.4 |
| 20260506201744 | 42 | 355 | 1.0 | 3.0 | 0.02 | 0.97 | 0.77 | 97 | 1008.0 |
| 20260506194744 | 42 | 335 | 1.0 | 4.0 | 0.01 | 0.96 | 0.76 | 97 | 1007.9 |
| 20260506191743 | 42 | 0 | 2.0 | 8.0 | 0.01 | 0.95 | 0.75 | 97 | 1008.0 |
| 20260506184745 | 43 | 48 | 1.0 | 6.0 | 0.03 | 0.95 | 0.75 | 97 | 1008.3 |
| 20260506181744 | 42 | 4 | 1.0 | 7.0 | 0.06 | 0.94 | 0.74 | 97 | 1008.9 |
| 20260506174743 | 42 | 34 | 1.0 | 8.0 | 0.09 | 0.92 | 0.72 | 97 | 1008.7 |
| 20260506171744 | 42 | 30 | 1.0 | 9.0 | 0.13 | 0.88 | 0.68 | 98 | 1009.2 |
| 20260506164744 | 41 | 31 | 2.0 | 8.0 | 0.12 | 0.83 | 0.63 | 97 | 1009.1 |
| 20260506163245 | 43 | 315 | 2.0 | 5.0 | 0.08 | 0.75 | 0.55 | 97 | 1009.1 |
| 20260506160245 | 43 | 357 | 2.0 | 7.0 | 0.05 | 0.71 | 0.51 | 97 | 1008.9 |
| 20260506151743 | 44 | 60 | 1.0 | 4.0 | 0.02 | 0.67 | 0.47 | 97 | 1009.5 |
| 20260506144743 | 44 | 7 | 0.0 | 3.0 | 0.04 | 0.66 | 0.46 | 98 | 1009.3 |
| 20260506141745 | 43 | 303 | 2.0 | 6.0 | 0.08 | 0.65 | 0.45 | 98 | 1009.6 |
| 20260506134743 | 44 | 87 | 3.0 | 8.0 | 0.08 | 0.62 | 0.42 | 98 | 1009.8 |
| 20260506131743 | 45 | 302 | 3.0 | 8.0 | 0.08 | 0.57 | 0.37 | 98 | 1010.2 |
| 20260506124745 | 45 | 70 | 1.0 | 6.0 | 0.08 | 0.54 | 0.34 | 98 | 1010.4 |
| 20260506121742 | 46 | 336 | 1.0 | 3.0 | 0.03 | 0.49 | 0.29 | 98 | 1010.8 |
| 20260506120244 | 46 | 190 | 1.0 | 2.0 | 0.01 | 0.46 | 0.26 | 98 | 1010.5 |
| 20260506111744 | 47 | 189 | 0.0 | 1.0 | 0.01 | 0.46 | 0.26 | 98 | 1010.0 |
| 20260506104744 | 47 | 189 | 0.0 | 2.0 | 0.02 | 0.45 | 0.25 | 98 | 1010.3 |
| 20260506101744 | 47 | 189 | 0.0 | 3.0 | 0.03 | 0.45 | 0.25 | 98 | 1010.4 |
| 20260506094744 | 47 | 343 | 0.0 | 2.0 | 0.02 | 0.43 | 0.23 | 98 | 1010.8 |
| 20260506091742 | 47 | 315 | 0.0 | 2.0 | 0.03 | 0.42 | 0.22 | 98 | 1010.5 |
| 20260506084744 | 48 | 314 | 0.0 | 4.0 | 0.03 | 0.41 | 0.21 | 98 | 1011.4 |
| 20260506083243 | 48 | 78 | 1.0 | 2.0 | 0.02 | 0.39 | 0.19 | 98 | 1011.1 |
| 20260506080242 | 48 | 72 | 0.0 | 2.0 | 0.02 | 0.38 | 0.18 | 98 | 1010.8 |
| 20260506071743 | 49 | 72 | 1.0 | 3.0 | 0.02 | 0.37 | 0.17 | 98 | 1010.8 |
| 20260506061742 | 49 | 336 | 0.0 | 2.0 | 0.05 | 0.35 | 0.15 | 97 | 1011.0 |
| 20260506044737 | 50 | 334 | 0.0 | 2.0 | 0.10 | 0.27 | 0.07 | 97 | 1010.8 |
| 20260506041734 | 51 | 344 | 1.0 | 5.0 | 0.09 | 0.23 | 0.03 | 96 | 1011.2 |
| 20260506034733 | 52 | 357 | 1.0 | 5.0 | 0.04 | 0.17 | 0.25 | 96 | 1010.7 |
| 20260506031735 | 53 | 355 | 1.0 | 3.0 | 0.01 | 0.14 | 0.23 | 97 | 1010.3 |
| 20260506030233 | 54 | 324 | 2.0 | 8.0 | 0.00 | 0.13 | 0.21 | 98 | 1009.6 |
| 20260506021731 | 55 | 35 | 1.0 | 3.0 | 0.00 | 0.13 | 0.21 | 98 | 1009.4 |
| 20260506014731 | 55 | 72 | 1.0 | 3.0 | 0.00 | 0.13 | 0.21 | 98 | 1009.0 |
| 20260506011729 | 55 | 135 | 0.0 | 1.0 | 0.00 | 0.13 | 0.21 | 97 | 1008.9 |
| 20260506004728 | 55 | 135 | 0.0 | 3.0 | 0.00 | 0.13 | 0.21 | 97 | 1008.4 |
| 20260506001728 | 55 | 134 | 0.0 | 3.0 | 0.00 | 0.13 | 0.21 | 97 | 1008.4 |
| 20260505234725 | 56 | 204 | 1.0 | 4.0 | 0.00 | 0.13 | 0.21 | 96 | 1008.4 |
| 20260505231724 | 57 | 278 | 0.0 | 2.0 | 0.00 | 0.13 | 0.21 | 97 | 1007.7 |